Home   Weather   Youngstown   Past weeks
Flag for USA

Past Weather in Youngstown, Ohio, USA — Yesterday and Last 2 Weeks

Now
63 °F

Mostly cloudy.


Feels Like: 63 °F
Forecast: 80 / 64 °F
Wind: 8 mph from South

Location: Youngstown-Warren Regional Airport

Current Time: May 23, 2019 at 7:13:07 am

Latest Report: May 23, 2019 at 5:51 am


Visibility: 10 mi

Pressure: 30.03 "Hg

Humidity: 90%

Dew Point: 60 °F

Location of YoungstownLocation

Past Weather in Youngstown — Graph

°F

Youngstown Temperature Yesterday

Maximum temperature yesterday: 78 °F (at 5:51 pm)
Minimum temperature yesterday: 46 °F (at 12:51 am)
Average temperature yesterday: 62 °F

High & Low Weather Summary for the Past Weeks

 TemperatureHumidityPressure
High86 °F (May 19, 1:51 pm)97% (May 11, 4:51 am)30.25 "Hg (May 11, 4:51 am)
Low38 °F (May 11, 4:51 am)32% (May 15, 6:51 pm)29.66 "Hg (May 13, 3:51 am)
Average58 °F71%29.93 "Hg
* Reported May 8 5:51 am — May 23 5:51 am, Youngstown. Weather by CustomWeather, © 2019

Note: Actual official high and low records may vary slightly from our data, if they occured in-between our weather recording intervals... More about our weather records

Advertising

Youngstown Weather History for the Previous 24 Hours

Scroll right to see more
 ConditionsComfort  
Time TempWeatherWind HumidityBarometerVisibility
5:51 am
Thu, May 23
63 °FMostly cloudy.8 mph90%30.03 "Hg10 mi
4:51 am64 °FMostly cloudy.7 mph90%30.02 "Hg10 mi
3:51 am64 °FPartly cloudy.9 mph90%30.02 "Hg10 mi
2:51 am63 °FPartly cloudy.7 mph93%30.05 "Hg10 mi
1:51 am64 °FMostly cloudy.6 mph90%30.04 "Hg10 mi
12:51 am64 °FMostly cloudy.9 mph90%30.05 "Hg10 mi
11:51 pm
Wed, May 22
65 °FMostly cloudy.5 mph87%30.08 "Hg10 mi
10:51 pm65 °FMostly cloudy.6 mph91%30.08 "Hg10 mi
9:51 pm66 °FLight rain. Overcast.5 mph87%30.07 "Hg10 mi
8:51 pm66 °FLight rain. Overcast.No wind84%30.06 "Hg10 mi
7:51 pm74 °FMostly cloudy.6 mph53%30.03 "Hg10 mi
6:51 pm75 °FMostly cloudy.9 mph52%30.02 "Hg10 mi
5:51 pm78 °FOvercast.9 mph48%30.03 "Hg10 mi
4:51 pm75 °FOvercast.9 mph50%30.05 "Hg10 mi
3:51 pm74 °FMostly cloudy.9 mph48%30.05 "Hg10 mi
2:51 pm72 °FMostly cloudy.10 mph49%30.09 "Hg10 mi
1:51 pm70 °FCloudy.12 mph49%30.10 "Hg10 mi
12:59 pm62 °FCloudy.15 mph58%30.10 "Hg10 mi
11:51 am67 °FCloudy.12 mph45%30.12 "Hg10 mi
10:51 am63 °FMostly cloudy.12 mph48%30.12 "Hg10 mi
9:51 am59 °FMostly cloudy.14 mph51%30.14 "Hg10 mi
8:51 am57 °FMostly cloudy.14 mph51%30.15 "Hg10 mi
7:51 am55 °FCloudy.14 mph53%30.15 "Hg10 mi
Weather by CustomWeather, © 2019

See weather overview